TIANLIAN 1-05

Last updated on Thu Jul 03 2025 00:02:48 GMT+0000 (Coordinated Universal Time)

1 49011U 21063A 25183.56996663 .00000115 00000+0 00000+0 0 9991 2 49011 0.6923 82.3293 0001225 61.8589 358.6053 1.00272243 14579
UTC large
Height (km)
Speed (km/s)
/
Latitude / Longitude
Inclination (degrees)
Orbital Period (minutes)
Azimuth
Elevation
Range (km)
Doppler Factor

Next 0 passes for location: London (51.5072 / 0.1276)

Sorry there are no passes over London.